When you browse on this site, cookies collect data to enhance your experience and personalize the content and advertising you see.
Visit our Privacy Policy to learn more. By continuing to use the site, you agree to this use of cookies and data.
  • In Romania
  • List of Countries
  • For 7 days
  • Water Temperature
  • Weather Map
  • Weather Widgets
  • user-avatar
    Login

    Hourly Weather Brussels

    Today, 25 February, Tuesday

    Time Temperature Precipitation Wind Pressure Humidity
    00:00 +9°C° 0 mm 7 mps 750 mmHg 81%
    01:00 +9°C° 0.1 mm 6 mps 750 mmHg 80%
    02:00 +8°C° 0.1 mm 6 mps 750 mmHg 79%
    03:00 +7°C° 0.1 mm 6 mps 749 mmHg 78%
    04:00 +7°C° 0 mm 6 mps 749 mmHg 76%
    05:00 +5°C° 0 mm 6 mps 749 mmHg 74%
    06:00 +6°C° 0 mm 5 mps 749 mmHg 74%
    07:00 +5°C° 0.1 mm 6 mps 749 mmHg 72%
    08:00 +5°C° 0.1 mm 6 mps 749 mmHg 71%
    09:00 +6°C° 0.1 mm 7 mps 749 mmHg 69%
    10:00 +6°C° 0.1 mm 7 mps 748 mmHg 65%
    11:00 +8°C° 0.1 mm 7 mps 748 mmHg 61%
    12:00 +9°C° 0 mm 7 mps 748 mmHg 56%
    13:00 +8°C° 0.5 mm 7 mps 747 mmHg 61%
    14:00 +8°C° 0.5 mm 7 mps 746 mmHg 67%
    15:00 +6°C° 0.5 mm 7 mps 745 mmHg 72%
    16:00 +6°C° 1.3 mm 7 mps 745 mmHg 74%
    17:00 +5°C° 1.3 mm 7 mps 745 mmHg 77%
    18:00 +4°C° 1.3 mm 7 mps 744 mmHg 79%
    19:00 +4°C° 0.3 mm 7 mps 744 mmHg 81%
    20:00 +3°C° 0.3 mm 7 mps 743 mmHg 82%
    21:00 +2°C° 0.3 mm 7 mps 743 mmHg 84%
    22:00 +1°C° 0.1 mm 8 mps 743 mmHg 80%
    23:00 +1°C° 0.1 mm 8 mps 742 mmHg 77%

    Tomorrow, 26 February, Wednesday

    Time Temperature Precipitation Wind Pressure Humidity
    00:00 0°C° 0.1 mm 8 mps 742 mmHg 73%
    01:00 0°C° 1.6 mm 9 mps 742 mmHg 79%
    02:00 0°C° 1.6 mm 10 mps 742 mmHg 85%
    03:00 -2°C° 1.6 mm 10 mps 741 mmHg 91%
    04:00 -1°C° 0.9 mm 9 mps 742 mmHg 91%
    05:00 0°C° 0.9 mm 8 mps 742 mmHg 91%
    06:00 0°C° 0.9 mm 7 mps 743 mmHg 90%
    07:00 0°C° 0.2 mm 7 mps 744 mmHg 87%
    08:00 0°C° 0.2 mm 7 mps 745 mmHg 84%
    09:00 +2°C° 0.2 mm 7 mps 745 mmHg 81%
    10:00 +2°C° 0.2 mm 7 mps 746 mmHg 79%
    11:00 +2°C° 0.2 mm 8 mps 747 mmHg 76%
    12:00 +2°C° 0.2 mm 8 mps 748 mmHg 74%
    13:00 +2°C° 0.2 mm 8 mps 748 mmHg 72%
    14:00 +4°C° 0.2 mm 7 mps 749 mmHg 70%
    15:00 +4°C° 0.2 mm 7 mps 749 mmHg 68%
    16:00 +3°C° 0 mm 6 mps 749 mmHg 71%
    17:00 +2°C° 0 mm 5 mps 750 mmHg 74%
    18:00 +3°C° 0 mm 4 mps 751 mmHg 77%
    19:00 +3°C° 0 mm 4 mps 751 mmHg 78%
    20:00 +1°C° 0 mm 5 mps 752 mmHg 78%
    21:00 +1°C° 0 mm 5 mps 752 mmHg 79%
    22:00 +1°C° 0 mm 5 mps 752 mmHg 78%
    23:00 0°C° 0 mm 4 mps 752 mmHg 77%

    Day after tomorrow, 27 February, Thursday

    Time Temperature Precipitation Wind Pressure Humidity
    00:00 0°C° 0 mm 4 mps 753 mmHg 76%
    01:00 0°C° 0 mm 4 mps 752 mmHg 77%
    02:00 0°C° 0 mm 4 mps 752 mmHg 78%
    03:00 -1°C° 0 mm 4 mps 751 mmHg 79%
    04:00 0°C° 0 mm 5 mps 750 mmHg 80%
    05:00 0°C° 0 mm 5 mps 750 mmHg 82%
    06:00 0°C° 0 mm 5 mps 749 mmHg 84%
    07:00 -1°C° 0.5 mm 6 mps 747 mmHg 87%
    08:00 -1°C° 0.5 mm 7 mps 746 mmHg 91%
    09:00 -1°C° 0.5 mm 8 mps 744 mmHg 95%
    10:00 -1°C° 1.9 mm 8 mps 742 mmHg 95%
    11:00 -1°C° 1.9 mm 9 mps 740 mmHg 95%
    12:00 -1°C° 1.9 mm 9 mps 738 mmHg 95%
    13:00 -2°C° 1.9 mm 10 mps 737 mmHg 95%
    14:00 -2°C° 1.9 mm 11 mps 737 mmHg 94%
    15:00 -2°C° 1.9 mm 12 mps 736 mmHg 94%
    16:00 -2°C° 0.3 mm 11 mps 739 mmHg 94%
    17:00 -2°C° 0.3 mm 10 mps 742 mmHg 93%
    18:00 0°C° 0.3 mm 9 mps 745 mmHg 93%
    19:00 0°C° 0.1 mm 8 mps 747 mmHg 90%
    20:00 -1°C° 0.1 mm 7 mps 749 mmHg 86%
    21:00 0°C° 0.1 mm 5 mps 751 mmHg 83%
    22:00 0°C° 0 mm 5 mps 752 mmHg 83%
    23:00 0°C° 0 mm 5 mps 753 mmHg 83%

    28 February, Friday

    Time Temperature Precipitation Wind Pressure Humidity
    00:00 0°C° 0 mm 5 mps 754 mmHg 83%
    01:00 0°C° 0 mm 5 mps 754 mmHg 84%
    02:00 -1°C° 0 mm 5 mps 755 mmHg 86%
    03:00 -1°C° 0 mm 5 mps 756 mmHg 87%
    04:00 -1°C° 0 mm 4 mps 756 mmHg 88%
    05:00 -1°C° 0 mm 4 mps 757 mmHg 88%
    06:00 -1°C° 0 mm 4 mps 757 mmHg 88%
    07:00 0°C° 0 mm 4 mps 757 mmHg 87%
    08:00 +1°C° 0 mm 4 mps 757 mmHg 85%
    09:00 +1°C° 0 mm 5 mps 757 mmHg 83%
    10:00 +2°C° 0 mm 5 mps 757 mmHg 81%
    11:00 +3°C° 0 mm 6 mps 757 mmHg 78%
    12:00 +4°C° 0 mm 6 mps 757 mmHg 75%
    13:00 +4°C° 0.1 mm 6 mps 756 mmHg 76%
    14:00 +4°C° 0.1 mm 6 mps 756 mmHg 77%
    15:00 +3°C° 0.1 mm 5 mps 755 mmHg 77%
    16:00 +3°C° 0.8 mm 5 mps 754 mmHg 83%
    17:00 +2°C° 0.8 mm 5 mps 753 mmHg 89%
    18:00 +1°C° 0.8 mm 5 mps 753 mmHg 95%
    19:00 +2°C° 0.8 mm 5 mps 752 mmHg 94%
    20:00 +2°C° 0.8 mm 5 mps 751 mmHg 93%
    21:00 +3°C° 0.8 mm 5 mps 751 mmHg 92%
    22:00 +4°C° 1 mm 6 mps 750 mmHg 93%
    23:00 +5°C° 1 mm 6 mps 750 mmHg 94%

    29 February, Saturday

    Time Temperature Precipitation Wind Pressure Humidity
    00:00 +7°C° 1 mm 6 mps 749 mmHg 95%
    01:00 +7°C° 0.1 mm 6 mps 749 mmHg 92%
    02:00 +7°C° 0.1 mm 6 mps 748 mmHg 90%
    03:00 +7°C° 0.1 mm 6 mps 748 mmHg 87%
    04:00 +6°C° 0 mm 7 mps 747 mmHg 87%
    05:00 +6°C° 0 mm 7 mps 747 mmHg 86%
    06:00 +6°C° 0 mm 7 mps 746 mmHg 86%
    07:00 +8°C° 0 mm 7 mps 745 mmHg 85%
    08:00 +7°C° 0 mm 8 mps 745 mmHg 84%
    09:00 +7°C° 0 mm 8 mps 744 mmHg 82%
    10:00 +8°C° 0 mm 9 mps 743 mmHg 78%
    11:00 +9°C° 0 mm 10 mps 741 mmHg 74%
    12:00 +11°C° 0 mm 10 mps 740 mmHg 71%
    13:00 +9°C° 1 mm 11 mps 740 mmHg 73%
    14:00 +8°C° 1 mm 11 mps 739 mmHg 76%
    15:00 +8°C° 1 mm 11 mps 739 mmHg 79%
    16:00 +6°C° 0.2 mm 10 mps 740 mmHg 76%
    17:00 +5°C° 0.2 mm 9 mps 741 mmHg 73%
    18:00 +3°C° 0.2 mm 9 mps 742 mmHg 70%
    19:00 +4°C° 0 mm 8 mps 743 mmHg 71%
    20:00 +2°C° 0 mm 8 mps 744 mmHg 72%
    21:00 +2°C° 0 mm 8 mps 745 mmHg 72%
    22:00 +1°C° 0 mm 8 mps 745 mmHg 74%
    23:00 +1°C° 0 mm 8 mps 745 mmHg 75%

    1 March, Sunday

    Time Temperature Precipitation Wind Pressure Humidity
    00:00 +1°C° 0 mm 8 mps 745 mmHg 76%
    01:00 +1°C° 0 mm 8 mps 745 mmHg 77%
    02:00 0°C° 0 mm 8 mps 746 mmHg 78%
    03:00 0°C° 0 mm 8 mps 746 mmHg 79%
    04:00 0°C° 0 mm 8 mps 745 mmHg 80%
    05:00 +1°C° 0 mm 9 mps 745 mmHg 81%
    06:00 +1°C° 0 mm 10 mps 745 mmHg 82%
    07:00 +1°C° 0.2 mm 10 mps 745 mmHg 83%
    08:00 +1°C° 0.2 mm 9 mps 745 mmHg 84%
    09:00 +2°C° 0.2 mm 9 mps 745 mmHg 85%
    10:00 +2°C° 0.5 mm 9 mps 745 mmHg 83%
    11:00 +3°C° 0.5 mm 9 mps 745 mmHg 82%
    12:00 +3°C° 0.5 mm 9 mps 745 mmHg 80%
    13:00 +4°C° 0.4 mm 8 mps 744 mmHg 81%
    14:00 +4°C° 0.4 mm 8 mps 744 mmHg 82%
    15:00 +4°C° 0.4 mm 8 mps 744 mmHg 83%
    16:00 +4°C° 0.2 mm 7 mps 744 mmHg 83%
    17:00 +4°C° 0.2 mm 6 mps 744 mmHg 83%
    18:00 +5°C° 0.2 mm 5 mps 744 mmHg 82%
    19:00 +3°C° 0 mm 5 mps 744 mmHg 83%
    20:00 +3°C° 0 mm 5 mps 744 mmHg 84%
    21:00 +2°C° 0 mm 5 mps 745 mmHg 84%
    22:00 +2°C° 0 mm 5 mps 745 mmHg 85%
    23:00 +2°C° 0 mm 5 mps 745 mmHg 86%
    Show more